Zurück zum Katalog

STARLINK-37424

AktivKommunikationVLEO
NORAD 69192·PAYLOAD·🇺🇸 United States

Gestartet May 25, 2026 von Cape Canaveral Space Force Station

Loading…

Nächste Überflüge (nächste 24 Stunden)

TLE

AktuellSource: CelesTrak SupGP

Epoche: Sep 14, 2026, 21:22 UTC

1 69192C 26114L   26257.89076389 -.00057038  00000+0 -16851-2 0  2577
2 69192  53.1565 140.0500 0001210  81.0659 274.2633 15.34421641    16

Verfolge STARLINK-37424 in Echtzeit mit AllMySat

Download on the App Store